Location: *
(51.1248°S, 108.4023°W)
Time: 19:12:08
(UTC+00:00)

Cosmos 1937 Rocket - Pass Details

Date: 24 October 2021
Orbit: 746 x 781 km, 74.0° (Epoch: 03 December)

Event Time Altitude Azimuth Distance (km) Brightness Sun altitude
Exits shadow 09:35:33 - 24° (NNE) 2,969 6.3 -18.3°
Reaches altitude 10° 09:37:33 10° 35° (NE) 2,349 5.9 -18.1°
Maximum altitude 09:41:30 21° 83° (E) 1,701 5.7 -17.7°
Drops below altitude 10° 09:45:28 10° 131° (SE) 2,365 7.3 -17.2°
Sets 09:48:22 0° 146° (SE) 3,297 8.5 -16.9°
